Location: Unspecified
(0.0000°N, 0.0000°E)
Time: 21:17:21
(UTC+00:00)

Vanguard 1 Rocket - Pass Details

Date: 21 January 2020
Orbit: 650 x 4226 km, 34.3° (Epoch: 23 February)

Event Time Altitude Azimuth Distance (km) Brightness Sun altitude
Rises 22:21:31 0° 267° (W) 8,056 12.6 -56.6°
Reaches altitude 10° 22:30:54 10° 250° (WSW) 6,401 12.0 -58.4°
Maximum altitude 22:41:37 17° 215° (SW) 4,783 11.3 -60.4°
Drops below altitude 10° 22:49:23 10° 178° (S) 4,450 11.1 -61.8°
Sets 22:54:03 0° 157° (SSE) 4,840 11.3 -62.6°
